Location: Irma
(52.9170°N, 111.2330°W)
Time: 22:25:29
(UTC-06:00)

Daily predictions for brighter satellites

Satellite Brightness Start Highest point End
(mag) Time Altitude Azimuth Time Altitude Azimuth Time Altitude Azimuth
Envisat 3.3 21:27:04 10° S 21:32:08 71° WSW 21:37:14 10° NNW
Cosmos 2219 Rocket 3.4 21:29:21 10° SSE 21:33:30 22° ESE 21:37:40 10° NE
Cosmos 1933 3.9 21:36:44 10° SSW 21:40:43 63° WNW 21:44:43 10° N
Cosmos 2151 Rocket 4.4 21:37:44 10° N 21:41:51 35° ENE 21:45:57 10° SE
SPOT 5 3.3 21:37:39 10° SE 21:42:04 43° ENE 21:46:19 10° N
SeaSat 1 3.1 21:38:57 10° ESE 21:43:38 45° NE 21:48:20 10° NNW
CENTAUR R/B 4.1 21:39:00 10° W 21:45:18 42° NNW 21:52:28 10° NE
Cosmos 2263 Rocket 4.4 21:42:54 10° NW 21:47:05 22° WSW 21:51:17 10° SSW
ERS-1 Rocket 3.0 21:43:23 10° SSE 21:48:25 86° ENE 21:53:29 10° NNW
Cosmos 2266 Rocket 4.2 21:45:23 10° NNW 21:51:42 80° W 21:58:04 10° S
H-2A R/B 2.8 21:47:23 10° SE 21:51:52 36° ENE 21:56:20 10° N
Cosmos 1782 3.4 21:54:40 10° SSE 21:58:24 38° E 22:02:07 10° NNE
Cosmos 2221 Rocket 3.6 21:54:43 10° S 21:59:07 67° E 22:03:34 10° NNE
YAOGAN 11 4.1 21:58:43 10° SSE 22:03:03 76° ENE 22:07:23 10° NNW
Cosmos 2369 Rocket 4.4 21:59:42 10° NNW 22:03:17 17° NNE 22:06:52 10° ENE
MetOp-B 4.2 21:59:02 10° SSE 22:04:24 83° ENE 22:09:47 10° NNW
Meteor 1-26 Rocket 4.5 22:00:09 10° SSW 22:05:55 81° WNW 22:11:50 10° NNE
H-2A R/B 3.3 22:04:32 13° ESE 22:07:49 30° ENE 22:11:41 10° N
NOSS 3-1 (C) 4.0 22:03:21 10° S 22:08:40 36° ESE 22:14:36 10° NE
Cosmos 2322 Rocket 3.8 22:04:03 10° WSW 22:09:20 40° NW 22:14:40 10° NNE
Cosmos 1346 Rocket 4.0 22:07:05 14° SE 22:09:29 24° E 22:12:44 10° NE
Cosmos 2297 4.4 22:04:13 10° NNW 22:09:42 44° NE 22:14:31 13° ESE
Terra 2.8 22:11:24 14° ESE 22:14:56 33° ENE 22:19:11 10° N
Cosmos 2360 Rocket 2.6 22:09:36 10° SW 22:15:16 71° NW 22:20:58 10° NNE
Cosmos 2237 4.2 22:09:32 10° SSW 22:15:16 80° ESE 22:21:01 10° NNE
USA 229 DEB 3.7 22:09:31 10° SW 22:16:21 76° SE 22:23:22 10° NE
USA 229 3.7 22:09:37 10° SW 22:16:28 76° SE 22:23:28 10° NE
USA 129 3.9 22:17:19 10° ENE 22:18:10 14° E 22:18:10 14° E
Abrixas rocket 3.6 22:16:24 10° WSW 22:19:08 24° SSW 22:20:39 18° SSE
Meteor 1-27 Rocket 4.3 22:15:33 13° SSE 22:20:05 37° E 22:25:08 10° NNE
Cosmos 1898 Rocket 3.7 22:15:42 10° NNW 22:20:51 61° ENE 22:24:51 17° SE
Cosmos 1300 Rocket 4.1 22:17:31 10° N 22:21:43 44° ENE 22:24:42 18° SE
COSMOS 2428 2.7 22:19:20 10° SSW 22:25:01 75° ESE 22:30:44 10° NE
YAOGAN 6 4.2 22:21:51 10° SSW 22:25:08 32° W 22:28:24 10° NNW
NOSS 3-1 (A) 4.0 22:21:14 10° S 22:26:33 36° ESE 22:32:29 10° NE
Cosmos 1844 4.3 22:21:03 10° NW 22:26:35 53° WSW 22:31:42 11° S
Cosmos 1606 2.7 22:23:21 11° S 22:26:52 61° E 22:30:37 10° NNE
ARGOS 3.2 22:22:45 11° SSE 22:27:52 83° WSW 22:33:19 10° NNW
Cosmos 2084 4.2 22:25:03 10° WNW 22:28:36 36° SW 22:31:20 16° S
ATLAS 2AS CENTAUR R/B 4.4 22:26:52 14° ESE 22:28:56 15° ESE 22:33:02 10° ENE
Cosmos 1980 4.3 22:24:04 10° S 22:29:06 35° ESE 22:34:11 10° NE
Okean 1-7 3.3 22:25:04 10° SSW 22:29:27 71° WNW 22:33:54 10° N
USA 267 3.2 22:23:55 10° ENE 22:30:30 85° SSE 22:37:05 10° WSW
Cosmos 1553 Rocket 4.2 22:30:41 13° SSE 22:36:04 52° E 22:42:02 10° NNE
SL-16 R/B 3.6 22:35:10 16° ESE 22:36:41 18° E 22:40:27 10° ENE
Cosmos 2322 4.4 22:32:41 10° SW 22:38:19 58° NW 22:43:59 10° NNE
SPOT 1/Viking Rocket 3.6 22:35:38 15° SSE 22:39:57 86° WSW 22:45:12 10° NNW
SL-16 R/B 4.4 22:37:05 10° W 22:42:00 29° NW 22:46:57 10° NNE
Meteor 1-11 Rocket 3.7 22:36:41 10° NNW 22:42:15 85° ENE 22:46:32 18° SSE
Meteor 1-10 Rocket 4.3 22:37:58 10° S 22:43:52 84° E 22:49:43 10° NNE
ATLAS 3B R/B 3.2 22:37:45 10° NW 22:44:38 55° NNE 22:50:28 13° ESE
SL-08 RB Rocket 3.9 22:43:17 16° S 22:46:57 68° WSW 22:51:29 10° NNW
USA 245 4.3 22:42:53 12° S 22:47:38 57° WSW 22:51:49 10° NNW
Cosmos 1844 Rocket 4.1 22:43:05 10° NW 22:47:54 30° WSW 22:52:42 10° SSW
ATLAS CENTAUR R/B 3.1 22:48:56 17° E 22:48:56 17° E 22:50:48 10° ENE
Okean 3 4.3 22:50:39 25° SE 22:52:09 32° E 22:55:53 10° NNE
Cosmos 1378 Rocket 4.4 22:50:24 24° SE 22:52:10 33° E 22:56:11 10° NNE
Nimbus 7 Rocket 4.4 22:47:02 10° NNE 22:52:59 71° ESE 22:58:59 10° S
TRAILBLAZER 4.5 22:49:31 10° SSW 22:54:02 72° SE 22:58:37 10° NE
Cosmos 1633 3.2 22:50:51 10° NNW 22:54:26 52° W 22:56:57 18° SSW
Cosmos 2278 Rocket 2.6 22:49:44 10° NW 22:55:17 57° WSW 22:59:16 19° S
Cosmos 2237 Rocket 2.4 22:50:19 12° S 22:55:29 49° ESE 23:00:58 10° NE
CZ-4C R/B 3.2 22:50:05 10° NW 22:56:50 55° SW 23:02:18 19° SSE
MOS 1-B Rocket 4.4 22:53:27 12° S 22:58:38 53° W 23:04:09 10° NNW
Cosmos 1536 2.8 22:55:45 10° N 22:59:49 75° ENE 23:01:47 29° SSE
MINOTAUR R/B 4.5 22:57:25 10° NNW 23:00:19 70° WSW 23:01:06 43° S
Cosmos 2333 4.5 22:54:52 10° SW 23:00:37 75° NW 23:06:27 10° NNE
IGS 5A 3.5 23:01:35 29° SSE 23:03:40 72° ENE 23:07:49 10° N
Cosmos 2333 Rocket 2.2 22:58:13 10° SSW 23:03:56 72° ESE 23:09:44 10° NE
S3M 3.9 23:03:20 15° S 23:08:32 80° E 23:14:50 10° NNE
Cosmos 1709 Rocket 4.3 23:02:13 10° N 23:08:33 57° ENE 23:12:17 25° SE
Cosmos 1607 4.2 23:02:41 10° NW 23:09:00 66° NE 23:13:28 21° ESE
USA 234 4.5 23:04:59 15° S 23:09:10 28° SW 23:14:42 10° WNW
Cosmos 2292 Rocket 2.9 23:07:11 10° N 23:10:06 50° ENE 23:10:37 43° ESE
deb Chang Zheng 4 3.9 23:06:14 10° NNE 23:10:29 46° E 23:12:09 31° SSE
USA 238 DEB 4.2 23:06:54 10° NW 23:13:54 61° NNE 23:19:39 16° ESE
USA 238 4.2 23:07:00 10° NW 23:14:00 60° NNE 23:19:46 16° ESE
CARTOSAT-1 3.5 23:13:48 29° S 23:15:59 82° WSW 23:20:20 10° NNW
Cosmos 2219 Rocket 2.3 23:11:12 10° SW 23:16:50 80° WNW 23:22:31 10° NNE
CZ-4C R/B 3.6 23:16:56 35° ESE 23:18:00 47° ENE 23:21:27 10° N
Aureole 2 Rocket 1.7 23:17:50 57° SSW 23:18:19 88° WNW 23:21:07 10° NNE
SPOT 5 4.3 23:16:20 10° SSW 23:20:18 28° W 23:24:13 10° NW
SeaSat 1 3.3 23:18:21 21° S 23:21:14 40° WSW 23:25:54 10° NW
PSLV R/B 2.9 23:23:47 60° SSW 23:24:08 70° WSW 23:26:56 10° NNW
SL-19 R/B 4.4 23:19:01 10° NNE 23:25:05 64° ESE 23:28:30 25° S
Meteor 1-5 Rocket 4.3 23:19:55 10° NNW 23:25:37 80° W 23:28:59 26° S
Okean 1 Rocket 3.5 23:24:34 10° NNW 23:28:58 60° W 23:31:13 27° SSW
Cosmos 1455 Rocket 3.9 23:25:09 10° N 23:29:21 38° ENE 23:30:51 29° ESE
H-2A R/B 2.9 23:27:57 17° SSW 23:31:17 39° W 23:35:55 10° NNW
Cosmos 1674 Rocket 3.9 23:29:52 20° SSW 23:32:45 63° WNW 23:37:04 10° N
Cosmos 1937 Rocket 3.9 23:29:26 10° NNW 23:34:34 54° WSW 23:37:07 28° S
NOSS 0 Rocket 3.9 23:30:42 10° SW 23:36:51 85° WNW 23:43:04 10° NNE
CENTAUR R/B 4.2 23:31:08 10° WNW 23:37:45 39° N 23:45:05 10° ENE
Cosmos 990 Rocket 4.3 23:34:48 10° NNW 23:39:51 57° WSW 23:42:10 31° S
Iridium 4 Rocket 3.7 23:37:52 10° NNW 23:41:53 48° W 23:44:00 25° SSW
USA 129 4.4 23:41:38 10° NNW 23:43:07 17° WNW 23:43:24 17° W
ASTEX 1 4.2 23:40:12 20° SSW 23:43:22 47° W 23:48:10 10° NNW
H-2A R/B 3.0 23:41:39 24° SSW 23:43:43 40° W 23:47:55 10° NNW
Cosmos 1346 Rocket 4.1 23:42:34 14° SW 23:45:42 38° WNW 23:49:30 10° N
Cosmos 1812 3.0 23:45:31 45° ESE 23:45:58 48° E 23:49:44 10° NNE
Meteor 1-12 Rocket 4.4 23:40:07 10° N 23:46:02 67° ENE 23:48:47 33° SSE
DMSP B5D2-2 4.2 23:41:32 10° NNE 23:46:50 76° WNW 23:50:25 21° SSW
Cosmos 1943 Rocket 3.6 23:43:06 10° NNW 23:48:08 31° NE 23:52:30 13° E
Cosmos 2369 Rocket 2.9 23:43:24 10° NNW 23:48:48 45° NE 23:52:02 23° ESE
Cosmos 1743 3.9 23:48:28 10° N 23:51:54 30° ENE 23:52:34 28° E
Terra 2.7 23:50:17 25° SSW 23:52:36 42° W 23:57:09 10° NNW
Cosmos 2297 4.4 23:48:32 10° NW 23:53:56 44° WSW 23:56:27 28° SSW
COSMOS 2455 4.4 23:49:02 10° NW 23:54:24 31° NNE 23:59:43 10° E
